Newcastle Airport, United Kingdom

12:46 PM GMT on November 18, 2017 (GMT +0000)
Newcastle Airport

Weather History for EGNT - January, 2013

Change the Weather History Date:

Tuesday, January 15, 2013

  Actual Average Record
Temperature  
Mean Temperature 28 °F -  
Max Temperature 33 °F 42 °F 51 °F (1999)
Min Temperature 23 °F 34 °F 21 °F (2012)
Degree Days  
Heating Degree Days 37    
Moisture  
Dew Point 30 °F    
Average Humidity 99    
Maximum Humidity 100    
Minimum Humidity 93    
Precipitation  
Precipitation 0.00 in - - ()
Sea Level Pressure  
Sea Level Pressure 29.85 in    
Wind  
Wind Speed 3 mph ()    
Max Wind Speed 6 mph    
Max Gust Speed -    
Visibility 4.5 miles    
Events Fog , Snow    
Averages and records for this station are not official NWS values.
T = Trace of Precipitation, MM = Missing Value Source: Averaged Metar Reports

Daily Weather History Graph

Daily Weather History Graph

Search for Another Location

Airport or City:

Trip Planner

Search our weather history database for the weather conditions in past years. The results will help you decide how hot, cold, wet, or windy it might be!

Date:

Astronomy

Jan. 15, 2013 Rise Set
Actual Time 8:22 AM GMT 4:10 PM GMT
Civil Twilight 7:39 AM GMT 4:53 PM GMT
Nautical Twilight 6:53 AM GMT 5:39 PM GMT
Astronomical Twilight 6:10 AM GMT 6:23 PM GMT
Moon 9:30 AM GMT (1/15) 9:40 PM GMT (1/15)
Length of Visible Light 9h 14m
Length of Day
7h 48m
Waxing Crescent, 17% of the Moon is Illuminated
Jan 15
Waxing Crescent
Jan 18
First Quarter
Jan 27
Full
Feb 3
Last Quarter
Feb 10
New

Hourly Weather History & Observations

Time (GMT) Temp. Windchill Dew Point Humidity Pressure Visibility Wind Dir Wind Speed Gust Speed Precip Events Conditions
12:20 AM 30.2 °F 25.4 °F 30.2 °F 100% 29.77 in 3.7 mi WNW 4.6 mph - N/A   Scattered Clouds
12:50 AM 32.0 °F 27.5 °F 30.2 °F 93% 29.77 in 3.7 mi NW 4.6 mph - N/A Snow Light Snow Showers
1:20 AM 32.0 °F - 32.0 °F 100% 29.77 in 3.7 mi Variable 2.3 mph - N/A Snow Light Snow Showers
2:20 AM 32.0 °F - 32.0 °F 100% 29.80 in 3.7 mi West 2.3 mph - N/A Snow Light Snow Showers
2:50 AM 32.0 °F - 30.2 °F 93% 29.80 in 5.0 mi West 2.3 mph - N/A   Mostly Cloudy
3:20 AM 30.2 °F - 30.2 °F 100% 29.80 in 5.0 mi West 2.3 mph - N/A   Scattered Clouds
3:50 AM 32.0 °F 26.4 °F 30.2 °F 93% 29.80 in 3.7 mi WNW 5.8 mph - N/A Snow Light Snow Showers
4:20 AM 30.2 °F 25.4 °F 30.2 °F 100% 29.80 in 1.9 mi NW 4.6 mph - N/A Snow Snow Showers
5:20 AM 30.2 °F - 30.2 °F 100% 29.80 in 1.9 mi Variable 2.3 mph - N/A Snow Snow Showers
5:50 AM 32.0 °F - 30.2 °F 93% 29.80 in 2.8 mi Calm Calm - N/A Snow Light Snow Showers
6:20 AM 30.2 °F - 30.2 °F 100% 29.80 in 2.8 mi West 2.3 mph - N/A Snow Light Snow Showers
6:50 AM 32.0 °F 28.7 °F 32.0 °F 100% 29.80 in 3.7 mi WNW 3.5 mph - N/A   Mostly Cloudy
7:20 AM 32.0 °F 28.7 °F 32.0 °F 100% 29.83 in 3.7 mi WNW 3.5 mph - N/A Snow Light Snow Showers
7:50 AM 32.0 °F - 32.0 °F 100% 29.83 in 2.8 mi Variable 2.3 mph - N/A Snow Light Snow Showers
8:20 AM 32.0 °F 28.7 °F 32.0 °F 100% 29.83 in 2.2 mi Variable 3.5 mph - N/A Snow Light Snow Showers
8:50 AM 32.0 °F 28.7 °F 32.0 °F 100% 29.86 in 2.8 mi WNW 3.5 mph - N/A   Mostly Cloudy
9:20 AM 32.0 °F 28.7 °F 32.0 °F 100% 29.86 in 5.6 mi Variable 3.5 mph - N/A   Mostly Cloudy
9:50 AM 32.0 °F 28.7 °F 32.0 °F 100% 29.86 in 5.6 mi WNW 3.5 mph - N/A   Partly Cloudy
10:20 AM 32.0 °F 28.7 °F 32.0 °F 100% 29.86 in 5.6 mi WNW 3.5 mph - N/A   Partly Cloudy
10:50 AM 32.0 °F - 32.0 °F 100% 29.86 in 6.2 mi WNW 2.3 mph - N/A   Partly Cloudy
11:20 AM 33.8 °F 29.6 °F 32.0 °F 93% 29.86 in 6.2 mi WNW 4.6 mph - N/A   Partly Cloudy
11:50 AM 33.8 °F 29.6 °F 33.8 °F 100% 29.86 in 6.2 mi NW 4.6 mph - N/A   Scattered Clouds
12:20 PM 32.0 °F 26.4 °F 32.0 °F 100% 29.89 in 1.2 mi North 5.8 mph - N/A Snow Light Snow
12:50 PM 32.0 °F 26.4 °F 32.0 °F 100% 29.89 in 6.2 mi NNW 5.8 mph - N/A   Mostly Cloudy
1:20 PM 32.0 °F 27.5 °F 32.0 °F 100% 29.86 in 6.2 mi WNW 4.6 mph - N/A   Scattered Clouds
1:50 PM 33.8 °F 28.6 °F 32.0 °F 93% 29.86 in 6.2 mi NW 5.8 mph - N/A   Partly Cloudy
2:20 PM 33.8 °F 28.6 °F 33.8 °F 100% 29.86 in 6.2 mi NW 5.8 mph - N/A   Scattered Clouds
2:50 PM 33.8 °F 29.6 °F 33.8 °F 100% 29.86 in 6.2 mi North 4.6 mph - N/A Snow Light Snow Showers
3:20 PM 32.0 °F 28.7 °F 32.0 °F 100% 29.89 in 6.2 mi North 3.5 mph - N/A   Scattered Clouds
3:50 PM 30.2 °F - 30.2 °F 100% 29.89 in 6.2 mi Calm Calm - N/A   Partly Cloudy
5:20 PM 30.2 °F - 30.2 °F 100% 29.89 in 6.2 mi NNE 2.3 mph - N/A   Scattered Clouds
5:50 PM 30.2 °F 26.7 °F 30.2 °F 100% 29.89 in 6.2 mi NNE 3.5 mph - N/A   Partly Cloudy
6:20 PM 26.6 °F 22.6 °F 26.6 °F 100% 29.89 in 6.2 mi NNE 3.5 mph - N/A   Partly Cloudy
7:20 PM 26.6 °F - 24.8 °F 93% 29.89 in 4.3 mi NNE 2.3 mph - N/A Fog Fog
7:50 PM 26.6 °F - 24.8 °F 93% 29.89 in 4.3 mi NNE 2.3 mph - N/A Fog Patches of Fog
8:20 PM 24.8 °F - 24.8 °F 100% 29.89 in 4.3 mi NNE 2.3 mph - N/A Fog Patches of Fog
8:50 PM 23.0 °F - 23.0 °F 100% 29.86 in 4.3 mi NNE 2.3 mph - N/A Fog Patches of Fog
9:20 PM 24.8 °F - 24.8 °F 100% 29.86 in 4.3 mi NNE 2.3 mph - N/A   Mostly Cloudy
9:50 PM 24.8 °F - 24.8 °F 100% 29.86 in 4.3 mi NNE 2.3 mph - N/A Fog Patches of Fog
10:20 PM 24.8 °F - 24.8 °F 100% 29.86 in 4.3 mi NNE 2.3 mph - N/A Fog Fog
10:50 PM 23.0 °F - 23.0 °F 100% 29.86 in 4.3 mi NNE 2.3 mph - N/A Fog Fog
11:50 PM 23.0 °F - 23.0 °F 100% 29.86 in 3.7 mi NNE 2.3 mph - N/A Fog Fog